296  
ASUS42 KILM 260813  
RWRILM  
RWRILM  
REGIONAL HOURLY WEATHER ROUNDUP  
NATIONAL WEATHER SERVICE WILMINGTON NC  
400 AM EDT SUN MAR 26 2017  
 
NOTE: "FAIR" INDICATES FEW OR NO CLOUDS BELOW 12,000 FEET WITH NO  
SIGNIFICANT WEATHER AND/OR S TO VISIBILITY
.  
   
..............WFO WILMINGTON COUNTY WARNING AREA............
 
 
   
.....COASTAL NC AND SC COUNTIES...
 
 
 
CITY SKY/WX TMP DP RH WIND PRES REMARKS
 
WILMINGTON CLOUDY 56 54 93 CALM 30.20F  
N MYRTLE BEACH MOCLDY 61 57 87 S3 30.19F  
MYRTLE BEACH CLOUDY 64 57 78 S6 30.20F  
   
.....INLAND NC AND SC COUNTIES....
 
 
 
CITY SKY/WX TMP DP RH WIND PRES REMARKS
 
LUMBERTON CLEAR 52 51 97 CALM 30.19F  
ELIZABETHTOWN PTCLDY 53 53 100 CALM 30.20F  
WHITEVILLE MOCLDY 56 55 94 CALM 30.19F  
FLORENCE PTCLDY 56 54 93 CALM 30.19F  
DARLINGTON CLOUDY 56 54 93 CALM 30.19F  
KINGSTREE FAIR 52 50 93 CALM 30.18F  
HARTSVILLE MOCLDY 55 52 88 CALM 30.18F  
BENNETTSVILLE FAIR 54 54 100 CALM 30.19S  
CONWAY MOCLDY 50 46 87 CALM 30.19F  
GEORGETOWN FAIR 54 52 94 CALM 30.19F  
MARION FAIR 55 52 88 SE3 30.19F  
   
...................REST OF NORTH CAROLINA...................
 
 
   
........EASTERN NC......
 
 
 
CITY SKY/WX TMP DP RH WIND PRES REMARKS
 
CAPE HATTERAS MOCLDY 60 55 83 CALM 30.23F HAZE  
JACKSONVILLE CLOUDY 50 49 96 CALM 30.22S  
MOREHEAD CITY CLOUDY 57 55 93 SE5 30.22F  
KENANSVILLE MOCLDY 50 50 100 CALM 30.22S FOG  
NEW BERN FOG 51 51 100 CALM 30.23R VSB 1/2  
ELIZABETH CITY MOCLDY 53 50 89 CALM 30.23S  
   
........CENTRAL NC......
 
 
 
CITY SKY/WX TMP DP RH WIND PRES REMARKS
 
RALEIGH DURHAM CLOUDY 58 51 78 S5 30.20S  
ROCKY MOUNT PTCLDY 51 51 100 CALM 30.21F  
ROANOKE RAPIDS NOT AVBL  
FAYETTEVILLE PTCLDY 53 51 93 CALM 30.19F  
HOFFMAN PTCLDY 49 48 97 CALM 30.19F  
   
........WESTERN NC......
 
 
 
CITY SKY/WX TMP DP RH WIND PRES REMARKS
 
CHARLOTTE PTCLDY 55 51 86 S6 30.18F  
GREENSBORO PTCLDY 56 53 90 S8 30.18S  
HICKORY NOT AVBL  
BOONE NOT AVBL  
ASHEVILLE NOT AVBL  
   
....................REST OF SOUTH CAROLINA..................
 
 
   
........EASTERN SC......
 
 
 
CITY SKY/WX TMP DP RH WIND PRES REMARKS
 
CHARLESTON MOCLDY 61 56 83 SE5 30.17F  
BEAUFORT MCAS PTCLDY 57 57 100 CALM 30.17F  
HILTON HEAD PTCLDY 63 59 88 VRB3 30.17F  
   
........CENTRAL SC......
 
 
 
CITY SKY/WX TMP DP RH WIND PRES REMARKS
 
COLUMBIA MOCLDY 56 51 84 CALM 30.17F  
ORANGEBURG CLOUDY 55 53 93 CALM 30.18F  
SUMTER SHAW MOCLDY 56 53 88 CALM 30.16F  
   
........WESTERN SC......
 
 
 
CITY SKY/WX TMP DP RH WIND PRES REMARKS
 
GREENVILLE NOT AVBL  
ROCK HILL CLEAR 55 52 89 S5 30.18F  
ANDERSON PTCLDY 59 52 77 SE6 30.14F  
CLEMSON NOT AVBL  
GREENWOOD CLEAR 55 50 83 CALM 30.16F  
 
   
..................COASTAL AND OFFSHORE REPORTS...............
 
 
   
...............LOCAL PIERS AND NC RESERVE.............
 
 
 
STATION/POSITION TIME SKY/WX TEMP WIND PRES VSBY
 
AIR SEA DIR/SP/G  
(UTC) (F) (DEG/KT/KT) (MB) (MI)  
JOHNY MRCER PIER 0748 61 57 190/ 3/ 4 1021.7F  
NC RESRV MASNBRO 0645 58 CALM 1022.0  
OCEAN CREST PIER NOT AVBL  
SPRINGMAID PIER 0748 1021.6F  
 
   
...............COASTAL AND OFFSHORE BUOYS.............
 
 
 
STATION/POSITION TIME SKY/WX TEMP WIND PRES VSBY
 
AIR SEA DIR/SP/G  
(UTC) (F) (DEG/KT/KT) (MB) (MI)  
DIMNDSHOAL 41025 0750 69 76 170/ 16/ 17 1023.7F  
WVE H/P(F/S)= 3/ 5 SWL H/P/D(F/S/D)= 2/140/ 7  
 
CAPE LOOKOUT 0800 65 160/ 10/ 11 1023.0F  
ONSLOW BAY 41036 NOT AVBL  
ONSLOW BAY 41064 0708 67 170/ 12/ 14 1023.4F  
ONSLOW BAY 41159 0743 65 N/A  
WVE H/P(F/S)= 3/ 8  
 
MASNBO INL 41110 0759 58 N/A  
WVE H/P(F/S)= 3/ 7  
 
WILM HARBR 41108 0747 58 N/A  
WVE H/P(F/S)= 4/ 5  
 
27SE WRITB 41037 0708 66 64 180/ 8/ 10 1022.7F  
FRYING PAN 41013 0800 71 74 150/ 17/ 21 1022.5  
SUNST NRSH 41024 NOT AVBL  
CAPRS NRSH 41029 0708 62 140/ 4/ 8 1022.1F  
EDISTO 41004 0750 70 71 150/ 14/ 17 1021.6F  
WVE H/P(F/S)= 5/ 8 SWL H/P/D(F/S/D)= 3/140/ 8  
 
   
.........OFFSHORE BUOYS BEYOND 100 NM OFFSHORE........
 
   
....IN A TRIANGLE---HAT TO BERMUDA TO BAHAMAS TO HAT..
 
 
 
 
STATION/POSITION TIME SKY/WX TEMP WIND PRES VSBY
 
AIR SEA DIR/SP/G  
(UTC) (F) (DEG/KT/KT) (MB) (MI)  
150E HAT 41001 NOT AVBL  
W BERMUDA 41048 0750 65 68 90/ 12/ 16 1024.8F  
WVE H/P(F/S)= 4/ 9 SWL H/P/D(F/S/D)= 3/130/ 9  
 
ATLANTIC S 41049 0750 70 71 70/ 21/ 25 1019.7F  
WVE H/P(F/S)= 10/ 9 SWL H/P/D(F/S/D)= 2/ 90/17  
 
E BAHAMAS 41046 NOT AVBL  
NE BAHAMAS 41047 0800 70 72 40/ 19/ 25 1018.6  
120E CANVRL41010 NOT AVBL  
 
END  
 
 
CLICK HERE TO GO TO PREVIOUS BULLETINS.

The Nexlab NC Page
The Nexlab SC Page Main Text Page